Weather History for KBYY - August, 2014

Change the Weather History Date:

Monday, August 25, 2014

  Actual Average (KLBX) Record (KLBX)
Temperature  
Mean Temperature 85 °F -  
Max Temperature 97 °F 88 °F 97 °F (2014)
Min Temperature 73 °F 72 °F 69 °F (1997)
Cooling Degree Days 20    
Growing Degree Days 35 (Base 50)    
Moisture  
Dew Point 75 °F    
Average Humidity 75    
Maximum Humidity 100    
Minimum Humidity 38    
Precipitation  
Precipitation 0.00 in - - ()
Sea Level Pressure  
Sea Level Pressure 29.92 in    
Wind  
Wind Speed 2 mph (SE)    
Max Wind Speed 14 mph    
Max Gust Speed 17 mph    
Visibility 10 miles    
Events      
Averages and records for this station are not official NWS values.
T = Trace of Precipitation, MM = Missing Value Source: NWS Daily Summary

Daily Weather History Graph

Daily Weather History Graph

Search for Another Location

Airport or City:

Trip Planner

Search our weather history database for the weather conditions in past years. The results will help you decide how hot, cold, wet, or windy it might be!

Date:

Astronomy

Aug. 25, 2014 Rise Set
Actual Time 6:57 AM CDT 7:52 PM CDT
Civil Twilight 6:33 AM CDT 8:17 PM CDT
Nautical Twilight 6:04 AM CDT 8:45 PM CDT
Astronomical Twilight 5:34 AM CDT 9:15 PM CDT
Moon 6:59 AM CDT (8/25) 7:50 PM CDT (8/25)
Length of Visible Light 13h 43m
Length of Day
12h 55m
New Moon, 0% of the Moon is Illuminated
Aug 25
New Moon
Sep 2
First Quarter
Sep 8
Full
Sep 15
Last Quarter
Sep 24
New

Hourly Weather History & Observations

Time (CDT) Temp. Heat Index Dew Point Humidity Pressure Visibility Wind Dir Wind Speed Gust Speed Precip Events Conditions
12:15 AM 77.5 °F - 77.5 °F 100% 29.94 in 10.0 mi Calm Calm - N/A   Clear
12:35 AM 77.4 °F - 77.4 °F 100% 29.94 in 10.0 mi Calm Calm - N/A   Clear
12:55 AM 77.4 °F - 77.4 °F 100% 29.94 in 10.0 mi Calm Calm - N/A   Clear
1:15 AM 76.5 °F - 76.5 °F 100% 29.94 in 10.0 mi Calm Calm - N/A   Clear
1:35 AM 77.2 °F - 77.2 °F 100% 29.93 in 10.0 mi Calm Calm - N/A   Clear
1:55 AM 76.6 °F - 76.6 °F 100% 29.93 in 10.0 mi Calm Calm - N/A   Clear
2:15 AM 76.5 °F - 76.5 °F 100% 29.93 in 10.0 mi Calm Calm - N/A   Clear
2:35 AM 75.6 °F - 75.6 °F 100% 29.93 in 10.0 mi Calm Calm - N/A   Clear
2:55 AM 75.2 °F - 75.2 °F 100% 29.93 in 10.0 mi Calm Calm - N/A   Clear
3:15 AM 75.0 °F - 75.0 °F 100% 29.93 in 10.0 mi Calm Calm - N/A   Clear
3:35 AM 74.7 °F - 74.7 °F 100% 29.92 in 10.0 mi Calm Calm - N/A   Clear
3:55 AM 75.0 °F - 75.0 °F 100% 29.92 in 10.0 mi Calm Calm - N/A   Clear
4:15 AM 74.8 °F - 74.8 °F 100% 29.92 in 10.0 mi Calm Calm - N/A   Clear
4:35 AM 74.5 °F - 74.5 °F 100% 29.92 in 10.0 mi Calm Calm - N/A   Clear
4:55 AM 73.8 °F - 73.8 °F 100% 29.92 in 10.0 mi Calm Calm - N/A   Clear
5:15 AM 73.6 °F - 73.6 °F 100% 29.92 in 10.0 mi Calm Calm - N/A   Clear
5:35 AM 73.6 °F - 73.6 °F 100% 29.92 in 10.0 mi Calm Calm - N/A   Clear
5:55 AM 73.9 °F - 73.9 °F 100% 29.93 in 10.0 mi Calm Calm - N/A   Clear
6:15 AM 73.9 °F - 73.9 °F 100% 29.93 in 10.0 mi Calm Calm - N/A   Clear
6:35 AM 73.8 °F - 73.8 °F 100% 29.93 in 10.0 mi Calm Calm - N/A   Clear
6:55 AM 74.1 °F - 74.1 °F 100% 29.93 in 10.0 mi Calm Calm - N/A   Clear
7:15 AM 73.8 °F - 73.8 °F 100% 29.93 in 10.0 mi Calm Calm - N/A   Clear
7:35 AM 74.3 °F - 74.3 °F 100% 29.94 in 10.0 mi Calm Calm - N/A   Clear
7:55 AM 75.7 °F - 75.7 °F 100% 29.94 in 10.0 mi Calm Calm - N/A   Clear
8:15 AM 78.4 °F - 78.4 °F 100% 29.94 in 10.0 mi Calm Calm - N/A   Clear
8:35 AM 81.1 °F 91.3 °F 81.1 °F 100% 29.95 in 10.0 mi Calm Calm - N/A   Clear
8:55 AM 83.7 °F 99.0 °F 82.0 °F 95% 29.95 in 10.0 mi Calm Calm - N/A   Clear
9:35 AM 86.2 °F 98.3 °F 77.7 °F 76% 29.95 in 10.0 mi Calm Calm - N/A   Mostly Cloudy
9:55 AM 86.4 °F 97.8 °F 77.2 °F 74% 29.95 in 10.0 mi North 4.6 mph - N/A   Scattered Clouds
10:15 AM 88.3 °F 100.6 °F 76.8 °F 69% 29.95 in 10.0 mi WNW 3.5 mph - N/A   Scattered Clouds
10:35 AM 88.9 °F 99.7 °F 75.7 °F 65% 29.96 in 10.0 mi West 5.8 mph - N/A   Mostly Cloudy
10:55 AM 89.8 °F 99.7 °F 74.5 °F 61% 29.95 in 10.0 mi Calm Calm - N/A   Scattered Clouds
11:15 AM 91.6 °F 101.1 °F 73.8 °F 56% 29.95 in 10.0 mi West 4.6 mph - N/A   Scattered Clouds
11:35 AM 91.2 °F 100.2 °F 73.4 °F 56% 29.95 in 10.0 mi Calm Calm - N/A   Mostly Cloudy
11:55 AM 92.3 °F 101.5 °F 73.4 °F 54% 29.95 in 10.0 mi Calm Calm - N/A   Scattered Clouds
12:15 PM 93.9 °F 103.4 °F 73.2 °F 51% 29.94 in 10.0 mi SE 3.5 mph - N/A   Scattered Clouds
12:35 PM 93.2 °F 101.7 °F 72.7 °F 51% 29.94 in 10.0 mi NE 5.8 mph - N/A   Mostly Cloudy
12:55 PM 94.5 °F 103.3 °F 72.5 °F 49% 29.94 in 10.0 mi East 4.6 mph - N/A   Mostly Cloudy
1:15 PM 95.5 °F 103.0 °F 71.4 °F 45% 29.93 in 10.0 mi ENE 4.6 mph - N/A   Scattered Clouds
1:35 PM 96.1 °F 102.3 °F 69.8 °F 42% 29.92 in 10.0 mi North 3.5 mph - N/A   Clear
1:55 PM 97.2 °F 101.9 °F 67.8 °F 38% 29.92 in 10.0 mi SSE 3.5 mph - N/A   Scattered Clouds
2:15 PM 97.9 °F 104.0 °F 69.3 °F 39% 29.91 in 10.0 mi ENE 3.5 mph - N/A   Scattered Clouds
2:35 PM 97.0 °F 102.8 °F 69.1 °F 40% 29.91 in 10.0 mi SE 6.9 mph - N/A   Scattered Clouds
2:55 PM 97.5 °F 106.0 °F 71.6 °F 43% 29.90 in 10.0 mi SSE 13.8 mph - N/A   Scattered Clouds
3:15 PM 97.3 °F 107.1 °F 72.7 °F 45% 29.89 in 10.0 mi SE 10.4 mph - N/A   Clear
3:35 PM 95.4 °F 105.4 °F 73.2 °F 49% 29.89 in 10.0 mi SE 11.5 mph 17.3 mph N/A   Clear
3:55 PM 93.2 °F 103.7 °F 74.1 °F 54% 29.88 in 10.0 mi SE 11.5 mph - N/A   Clear
4:15 PM 95.2 °F 104.9 °F 73.0 °F 49% 29.87 in 10.0 mi SE 6.9 mph - N/A   Clear
4:35 PM 97.0 °F 106.2 °F 72.3 °F 45% 29.86 in 10.0 mi SE 8.1 mph - N/A   Clear
4:55 PM 96.8 °F 105.8 °F 72.3 °F 45% 29.85 in 10.0 mi SSE 8.1 mph - N/A   Clear
5:15 PM 96.8 °F 107.3 °F 73.4 °F 47% 29.85 in 10.0 mi ESE 6.9 mph - N/A   Clear
5:35 PM 96.8 °F 108.1 °F 73.9 °F 48% 29.85 in 10.0 mi South 9.2 mph - N/A   Clear
5:55 PM 95.9 °F 106.6 °F 73.8 °F 49% 29.85 in 10.0 mi SSE 11.5 mph - N/A   Clear
6:15 PM 94.6 °F 104.4 °F 73.2 °F 50% 29.85 in 10.0 mi SSE 9.2 mph - N/A   Clear
6:35 PM 93.7 °F 102.9 °F 73.0 °F 51% 29.86 in 10.0 mi SSE 10.4 mph - N/A   Clear
6:55 PM 92.5 °F 101.3 °F 73.2 °F 53% 29.86 in 10.0 mi SE 10.4 mph - N/A   Clear
7:15 PM 91.2 °F 100.2 °F 73.6 °F 56% 29.86 in 10.0 mi South 9.2 mph - N/A   Clear
7:35 PM 90.0 °F 99.0 °F 73.9 °F 59% 29.88 in 10.0 mi SSE 6.9 mph - N/A   Clear
7:55 PM 88.3 °F 97.9 °F 74.8 °F 64% 29.88 in 10.0 mi SSE 5.8 mph - N/A   Clear
8:15 PM 86.9 °F 96.4 °F 75.4 °F 68% 29.88 in 10.0 mi SE 5.8 mph - N/A   Clear
8:35 PM 85.5 °F 95.0 °F 75.9 °F 73% 29.89 in 10.0 mi SE 4.6 mph - N/A   Clear
8:55 PM 84.9 °F 94.5 °F 76.3 °F 75% 29.91 in 10.0 mi SE 5.8 mph - N/A   Scattered Clouds
9:15 PM 84.6 °F 94.3 °F 76.6 °F 77% 29.91 in 10.0 mi Calm Calm - N/A   Clear
9:35 PM 84.0 °F 93.3 °F 76.6 °F 78% 29.92 in 10.0 mi Calm Calm - N/A   Clear
9:55 PM 83.5 °F 92.6 °F 76.6 °F 80% 29.92 in 10.0 mi Calm Calm - N/A   Clear
10:15 PM 82.9 °F 91.5 °F 76.5 °F 81% 29.93 in 10.0 mi SE 3.5 mph - N/A   Clear
10:35 PM 82.2 °F 89.9 °F 76.3 °F 82% 29.93 in 10.0 mi Calm Calm - N/A   Clear
10:55 PM 82.2 °F 90.1 °F 76.6 °F 83% 29.93 in 10.0 mi Calm Calm - N/A   Clear
11:15 PM 81.3 °F 89.2 °F 77.9 °F 89% 29.94 in 10.0 mi East 6.9 mph - N/A   Scattered Clouds
11:35 PM 82.0 °F 92.5 °F 79.9 °F 93% 29.93 in 10.0 mi ESE 10.4 mph - N/A   Scattered Clouds
11:55 PM 82.0 °F 92.5 °F 79.9 °F 93% 29.93 in 10.0 mi East 6.9 mph - N/A   Clear